Overview Statistics Trail Chart Weather Telemetry Raw packets
 

This is the latest recevied weather packets stored in our database for station/object WC4PEM-4. If no packets are shown the sender has not sent any weather packets the latest 10 day(s).

<< 82 83 84 85 86 87 88 >>
Time Temp. Humidity Pressure Rain* Wind** Luminosity Snow
1788182181 27.78° C 86% 1017.3 hPa 0 mm - - -
1788181995 27.22° C 87% 1017.4 hPa 0 mm - - -
1788181881 27.22° C 87% 1017.4 hPa 0 mm - - -
1788181701 27.22° C 89% 1017.1 hPa 0 mm - - -
1788181581 27.22° C 89% 1017.1 hPa 0 mm - - -
1788181448 26.67° C 91% 1017.1 hPa 0 mm - - -
1788181281 26.67° C 91% 1017.1 hPa 0 mm - - -
1788180981 26.11° C 92% 1017.2 hPa 0 mm - - -
1788180770 26.11° C 92% 1017.3 hPa 0 mm - - -
1788180681 26.11° C 92% 1017.3 hPa 0 mm - - -
1788180381 25.56° C 93% 1017.3 hPa 0 mm - - -
1788180081 25.56° C 93% 1017 hPa 0 mm - - -
1788179781 25.56° C 94% 1017 hPa 0 mm - - -
1788179617 25° C 94% 1017.1 hPa 0 mm - - -
1788179481 25° C 94% 1017.1 hPa 0 mm - - -
1788179181 25° C 95% 1017.2 hPa 0 mm - - -
1788178881 25° C 95% 1017 hPa 0 mm - - -
1788178682 25° C 95% 1017 hPa 0 mm - - -
1788178581 25° C 95% 1017 hPa 0 mm - - -
1788178281 24.44° C 96% 1017 hPa 0 mm - - -
1788177981 24.44° C 96% 1017 hPa 0 mm - - -
1788177681 24.44° C 96% 1016.9 hPa 0 mm - - -
1788177383 23.89° C 96% 1016.9 hPa 0 mm - - -
1788177381 24.44° C 96% 1017 hPa 0 mm - - -
1788177095 23.89° C 96% 1016.9 hPa 0 mm - - -

* Rain latest hour (hover to see other rain measurements)
** Current wind speed in m/s (hover to see current wind gust speed)